GFSGL_250_spd_096.txt.gz
Wind_Speed
43 46 48 52 55 56 59 65 70 75 79 82 86 90 93 96 99 102 106 110 113 115 119 124 120 118 122 118 117 114 111 117 111 100 94 93 87 70 75 63 54 38 32
48 51 54 58 61 64 68 71 75 79 81 86 88 88 89 90 92 93 97 100 103 103 106 113 119 128 129 127 126 123 118 115 116 106 81 84 72 66 64 52 51 36 45
38 36 38 40 43 47 50 55 58 62 66 71 73 76 78 81 84 86 87 92 98 99 99 98 100 102 103 106 109 107 103 97 88 89 96 86 83 69 64 54 47 47 40
34 34 36 40 45 51 57 61 66 69 73 79 82 79 77 79 81 84 87 96 97 94 95 95 92 90 88 88 92 93 96 87 87 84 81 70 70 66 66 59 58 51 41
35 37 40 46 52 58 63 69 72 76 77 82 81 83 84 81 82 86 89 88 93 91 92 92 88 87 83 81 82 78 81 83 85 81 78 72 70 61 62 60 57 47 39
39 41 47 52 58 66 68 69 73 78 82 86 88 87 85 83 83 87 93 92 89 86 83 86 89 92 86 79 81 77 75 86 81 80 83 75 78 73 65 72 64 46 51
41 47 55 59 67 68 70 69 74 81 87 89 89 86 85 84 83 80 85 84 83 85 84 86 93 95 93 82 79 77 74 82 80 69 70 77 77 73 71 67 59 57 47
44 49 55 61 65 63 65 74 83 90 94 93 89 85 81 79 80 80 81 76 78 75 72 73 76 80 88 84 79 76 72 79 80 75 73 71 73 76 71 70 62 51 46
46 53 54 55 58 62 72 78 87 89 85 78 72 68 70 74 74 73 68 66 64 61 59 61 63 67 74 70 68 69 71 78 74 78 73 73 77 72 63 59 53 49 50
46 47 50 52 57 66 75 80 82 75 72 65 60 57 56 56 56 54 54 50 50 48 46 48 53 55 57 56 63 68 67 74 68 80 78 75 76 71 69 65 63 60 56
42 47 49 52 61 70 76 78 69 62 56 52 47 44 42 40 40 41 41 40 38 38 40 43 47 51 51 59 64 65 68 68 63 79 76 79 70 69 67 68 66 65 65
43 49 48 54 65 75 75 67 58 49 42 38 36 33 33 32 30 30 32 34 35 35 38 42 47 47 51 56 61 63 67 67 66 78 68 68 66 65 69 71 68 66 71
45 50 50 59 70 74 68 55 47 37 31 28 24 20 18 14 17 20 21 24 30 34 36 36 36 40 45 51 55 62 68 67 70 74 72 62 64 67 64 68 74 80 73
46 50 52 60 71 73 60 46 36 29 24 20 17 13 10 6 9 13 17 21 28 28 33 35 37 39 43 47 51 65 68 69 71 77 75 72 71 71 69 70 71 82 73
48 53 57 63 71 72 60 41 27 20 14 10 7 6 5 7 9 11 15 19 24 32 32 40 39 39 40 43 56 67 69 69 67 72 71 70 73 76 75 70 73 72 71
48 55 56 60 69 70 63 39 22 19 15 13 9 7 8 8 10 14 17 20 24 26 43 36 35 40 43 55 65 67 67 67 67 69 68 69 66 70 68 67 63 65 66
48 55 57 56 65 69 68 47 29 24 26 27 27 28 15 13 19 19 23 24 26 29 34 37 38 39 49 61 64 65 66 67 66 70 72 67 65 65 66 66 73 72 71
48 53 56 53 58 62 67 59 45 37 37 35 31 29 28 18 16 19 25 25 20 30 27 23 45 43 49 61 59 62 60 62 64 66 69 71 69 69 68 70 75 76 78
44 49 54 56 54 57 61 61 50 41 33 32 30 25 24 19 12 11 15 14 14 22 34 40 38 50 52 60 58 60 60 61 61 60 59 56 61 62 59 60 67 65 70
39 43 50 54 53 50 54 55 53 46 35 19 19 15 13 11 5 3 8 4 15 19 28 38 45 42 47 54 60 59 56 54 57 54 51 58 59 61 58 63 61 64 65
38 40 44 50 51 50 46 47 47 50 41 32 23 10 6 10 12 14 11 13 11 10 18 29 33 35 42 50 56 61 61 45 38 38 44 48 59 60 61 69 70 76 74
37 38 40 45 49 49 43 42 40 40 40 31 26 23 14 21 25 29 31 26 20 23 18 17 16 18 25 28 33 30 33 41 45 39 40 41 48 57 60 51 41 44 49
41 40 40 41 44 47 45 40 33 29 36 32 23 25 29 25 27 31 34 35 35 32 31 32 29 25 22 24 22 29 37 35 29 36 25 35 33 38 37 32 29 34 35
42 42 40 39 41 46 46 43 36 28 24 23 27 23 15 26 41 39 44 48 47 44 44 42 42 41 39 38 40 42 38 43 36 33 24 24 24 22 24 25 28 31 29
46 44 42 42 41 41 43 44 37 30 23 17 21 21 13 13 11 25 47 53 56 55 56 56 55 55 55 59 56 54 51 48 45 37 24 21 21 22 25 25 28 32 33
54 52 50 47 44 43 40 43 40 35 29 22 15 16 13 10 10 10 13 23 38 54 65 66 66 68 69 69 65 62 57 50 47 41 23 21 22 22 26 26 29 34 37

GFSGL_250_spd_102.txt.gz
Wind_Speed
25 21 19 18 18 20 24 30 38 46 50 54 58 65 74 81 88 92 93 97 88 85 86 90 89 93 98 100 98 98 100 95 91 96 97 100 99 104 103 99 96 90 86
33 30 29 27 26 28 31 35 39 44 49 51 53 54 56 57 61 65 68 71 72 73 76 77 78 81 82 84 83 83 86 91 91 91 96 97 96 98 98 96 97 80 77
39 38 37 36 38 37 38 42 46 48 50 51 52 54 57 61 65 66 65 66 68 69 70 72 73 75 74 78 80 78 75 78 81 81 83 88 90 93 93 92 75 71 68
43 42 41 42 43 43 46 49 46 43 41 42 45 48 52 56 59 63 67 72 74 75 77 79 81 79 77 77 76 73 72 74 73 77 75 76 75 75 74 79 77 73 68
49 47 45 47 48 51 52 48 43 42 44 48 52 58 62 66 71 74 78 80 81 83 83 83 83 86 86 83 81 79 74 71 72 72 65 66 68 63 62 64 66 75 73
52 51 50 52 53 54 49 45 44 44 50 54 59 64 70 76 78 81 83 85 86 85 86 86 86 87 87 86 82 78 75 72 71 72 71 63 62 56 53 52 51 50 54
48 46 48 49 49 45 42 39 43 48 55 61 67 73 77 81 84 85 87 87 90 93 95 95 93 91 90 87 83 80 69 63 66 70 72 63 61 57 51 42 43 42 50
45 45 47 43 41 41 41 45 48 55 61 66 73 79 83 85 86 89 91 93 97 99 97 95 95 95 92 93 89 86 72 70 72 71 68 61 61 53 52 47 40 41 50
45 44 38 35 35 38 42 45 51 58 66 72 81 86 88 92 92 98 88 77 74 69 69 72 77 82 85 88 87 80 79 78 73 66 66 60 60 55 50 47 41 38 54
41 36 34 34 37 40 42 48 55 60 69 77 84 89 90 90 64 63 56 55 50 51 51 54 57 60 64 67 68 71 74 76 72 69 64 61 61 57 55 45 41 48 58
33 34 32 36 38 39 44 50 55 62 69 77 86 85 62 51 46 45 41 37 38 37 38 40 43 47 50 52 52 58 63 69 67 65 61 56 59 63 57 49 40 59 60
31 31 35 35 35 39 44 48 53 61 64 79 81 63 55 48 40 31 27 26 26 27 27 28 29 32 37 41 42 45 48 53 55 57 58 58 57 59 58 53 51 62 56
31 32 31 33 35 35 40 44 50 59 66 72 66 62 48 34 27 23 19 15 13 15 16 17 18 22 25 28 32 36 40 44 50 54 57 64 62 61 57 53 52 68 61
30 29 28 29 29 32 35 41 49 56 63 60 56 41 27 23 20 16 12 8 5 2 4 6 9 12 17 20 23 27 31 36 40 42 44 50 57 58 53 56 58 67 64
30 28 28 27 28 32 36 41 47 53 58 51 42 27 20 15 18 19 16 13 11 11 8 11 14 17 18 21 24 25 27 29 34 37 39 44 49 53 56 55 64 59 65
28 28 28 29 29 34 37 41 44 49 52 50 30 22 19 22 19 16 14 16 12 17 19 30 26 26 29 30 33 36 35 36 38 40 43 47 50 50 52 54 64 56 56
29 30 30 32 31 34 36 40 40 44 45 50 24 20 26 20 15 12 11 16 20 30 36 42 40 35 32 35 36 39 37 39 42 43 46 45 46 43 43 47 59 42 47
31 33 34 35 35 33 35 38 36 39 42 40 40 24 24 20 14 9 9 17 24 23 26 35 35 33 31 30 41 43 40 43 45 48 50 57 51 45 49 39 43 49 50
37 36 36 38 35 33 34 37 39 34 39 40 37 36 20 18 12 1 6 7 21 20 19 32 37 33 30 33 29 38 49 49 44 46 48 50 47 47 52 46 47 52 54
41 40 40 38 37 36 36 35 37 36 33 36 36 37 29 16 15 11 7 11 15 16 19 30 36 38 39 35 45 42 44 51 45 42 47 51 51 49 49 57 48 54 59
45 44 44 43 41 40 37 36 36 36 33 31 31 32 33 29 14 12 10 6 10 10 20 34 38 41 39 36 56 49 52 52 51 55 53 51 57 59 57 57 58 58 57
47 48 48 46 44 43 42 39 38 37 35 33 30 27 25 26 23 14 7 9 9 9 15 25 27 36 45 36 36 34 48 47 51 56 54 52 51 52 52 55 57 59 60
50 51 50 49 50 48 45 45 40 39 38 37 32 27 25 21 23 20 13 1 7 12 16 17 26 43 44 41 39 39 38 49 42 45 44 47 46 47 49 50 48 52 55
50 52 53 54 54 53 51 48 45 43 42 42 37 33 28 25 20 18 16 9 3 8 13 19 21 18 32 38 40 44 45 45 43 43 45 44 45 44 47 47 53 56 58
44 48 50 52 54 54 52 50 50 49 48 46 43 39 34 28 24 21 20 17 10 6 15 17 21 22 19 25 32 48 49 51 50 50 51 51 48 47 49 53 55 55 59
46 50 51 53 55 56 56 55 54 53 50 48 44 43 40 36 31 25 21 22 20 15 9 10 22 27 27 30 31 30 38 48 51 58 54 57 56 55 54 56 57 58 62

GFSGL_250_spd_105.txt.gz
Wind_Speed
55 53 53 52 44 39 34 30 27 25 24 28 49 76 93 99 88 85 88 85 90 91 92 98 97 95 94 97 97 92 89 90 92 94 94 93 87 87 85 86 84 82 82
54 50 51 52 47 43 40 37 35 34 34 35 37 40 44 47 51 56 60 63 62 63 66 71 78 88 92 100 103 101 94 88 82 84 92 94 91 92 93 89 85 82 90
54 50 50 51 50 48 45 44 44 42 42 43 44 46 49 52 55 58 61 63 64 65 67 67 68 70 70 72 74 75 76 72 69 67 67 72 75 83 83 83 84 89 83
55 52 50 49 47 48 49 49 50 50 50 52 53 51 50 51 53 56 59 61 62 64 66 68 70 70 71 73 72 69 69 67 63 60 61 64 63 62 61 65 66 69 70
57 55 52 51 48 50 52 54 55 55 56 55 54 51 50 53 57 61 64 66 68 71 74 78 79 78 79 80 78 76 75 73 69 61 56 58 59 58 54 56 58 56 55
58 56 53 53 51 51 50 51 50 52 52 51 50 52 56 61 65 69 72 74 77 81 83 87 88 86 85 85 84 81 79 77 71 67 64 63 62 58 51 50 51 48 46
59 56 54 53 53 49 48 48 49 47 48 49 53 57 61 64 69 75 80 83 86 87 86 87 88 88 88 86 88 88 87 83 76 67 64 64 65 64 59 51 47 41 42
61 58 56 56 53 46 46 47 43 44 45 51 55 59 64 73 77 78 83 87 86 91 92 92 92 95 96 94 94 93 89 86 81 73 65 62 62 63 55 46 41 36 36
66 62 63 53 42 43 44 41 41 43 48 52 56 65 74 79 81 85 89 88 76 72 72 72 74 78 81 84 86 91 85 83 85 79 69 58 59 59 45 38 38 38 40
47 45 42 37 40 41 37 37 40 44 47 54 61 67 77 81 83 69 59 49 49 51 53 58 64 65 64 64 61 62 66 71 73 77 67 61 63 60 49 44 36 36 41
35 33 33 34 36 33 32 35 38 42 46 52 58 68 74 79 68 63 48 39 36 35 36 40 42 44 46 48 48 49 55 58 63 65 64 68 65 61 50 42 38 32 38
26 28 29 29 29 28 32 31 34 38 44 51 59 64 70 63 61 54 40 34 30 28 25 24 25 27 29 32 34 37 40 42 46 51 61 67 72 64 55 46 51 49 46
24 26 26 26 27 28 28 27 32 38 43 50 55 62 59 53 39 31 29 24 22 19 18 16 16 15 15 18 21 23 28 34 38 43 52 62 67 68 59 52 55 61 53
26 26 26 27 27 25 26 27 32 38 42 49 52 57 49 41 31 27 24 22 20 17 13 9 6 5 7 9 13 18 23 26 30 35 43 55 64 60 55 51 53 61 64
28 26 28 29 26 27 27 28 32 37 41 46 49 51 47 31 25 22 19 19 20 18 17 13 6 6 3 7 13 18 21 25 31 34 37 46 53 54 54 55 56 65 65
28 29 30 30 27 28 28 30 32 34 37 42 48 48 40 28 19 22 18 17 22 23 22 15 14 15 15 16 18 21 25 27 30 33 43 48 50 52 55 54 59 69 61
32 32 32 30 28 27 30 32 32 31 33 37 41 43 40 25 17 18 8 15 19 21 21 22 16 17 22 25 27 28 26 25 27 26 30 43 49 56 58 59 66 68 68
32 35 33 34 30 29 33 34 31 30 30 33 35 39 39 32 23 13 3 5 11 15 19 26 24 17 20 29 26 30 32 29 32 34 33 35 41 48 55 53 64 66 58
35 37 37 36 37 36 36 34 34 32 30 30 29 31 33 36 24 16 7 7 3 8 14 23 26 28 28 34 36 36 39 36 35 43 41 43 45 48 54 54 56 57 54
39 40 40 41 44 42 40 38 38 37 33 29 29 26 26 26 29 19 7 5 2 8 10 15 25 28 25 34 38 45 43 42 43 46 46 45 43 46 50 55 58 61 56
40 45 46 46 47 48 47 47 43 41 37 33 30 25 24 22 22 24 11 5 6 8 19 20 30 30 30 35 42 45 45 49 51 47 45 41 40 40 46 49 49 61 51
34 39 43 46 49 51 50 50 50 47 42 38 34 30 24 22 21 18 18 12 8 12 20 23 24 33 29 39 39 43 44 46 48 47 44 43 42 38 40 43 46 53 47
41 43 46 49 51 53 54 54 54 51 49 47 40 36 31 25 21 21 14 14 12 20 26 25 31 33 42 45 43 46 42 44 49 50 41 42 43 48 49 51 52 52 52
42 44 45 45 47 52 56 57 56 55 54 53 48 44 37 34 27 22 20 15 12 19 28 31 38 36 47 39 43 48 45 48 49 55 52 51 50 50 51 52 53 56 53
44 44 45 45 47 47 48 51 53 54 53 52 51 49 46 40 36 31 26 22 18 15 25 34 41 49 46 43 43 47 54 54 51 52 55 57 55 57 58 59 58 60 60
48 49 50 50 50 49 49 49 50 53 55 55 53 51 49 45 40 35 33 30 25 23 20 28 41 50 56 51 50 49 44 48 56 56 52 49 56 64 64 63 63 65 66

GFSGL_250_spd_111.txt.gz
Wind_Speed
74 75 73 71 69 68 67 67 69 70 72 73 72 71 70 68 68 66 64 62 59 57 52 47 59 81 83 80 93 101 103 104 104 106 109 108 109 105 107 105 103 104 97
77 75 74 71 68 68 67 69 70 70 73 71 71 68 66 67 67 65 63 64 66 64 61 61 58 55 69 92 93 92 91 94 91 96 108 109 110 112 107 111 108 109 103
75 73 72 71 70 68 69 69 71 72 67 66 67 64 64 66 67 67 66 66 66 65 65 64 63 64 64 67 73 79 84 87 91 92 97 104 106 106 106 103 99 97 98
68 70 70 70 69 70 71 70 70 65 63 63 63 63 64 66 66 65 68 67 64 61 61 62 63 66 69 74 77 79 80 79 78 79 82 86 92 99 98 90 87 91 88
69 65 64 65 66 68 70 67 60 59 59 59 62 63 64 65 63 64 66 65 60 58 58 59 61 63 65 68 72 76 80 81 81 81 80 75 73 72 70 68 67 66 57
59 62 64 65 63 61 59 58 57 56 58 59 59 61 63 62 62 65 62 59 58 59 63 65 68 69 70 71 74 76 78 78 76 77 79 75 72 71 70 68 66 60 50
51 51 52 54 54 56 55 55 55 58 59 58 60 60 61 60 60 59 55 55 59 63 66 71 75 78 78 73 73 75 80 82 79 76 73 72 73 72 69 64 59 57 53
52 52 52 53 53 54 56 58 58 57 58 59 61 60 55 55 57 51 51 55 62 68 70 73 74 72 69 64 64 66 73 72 78 81 75 71 72 73 66 62 58 55 51
58 57 57 57 57 56 55 55 57 60 63 66 60 55 54 50 46 48 51 58 65 70 72 63 56 59 63 56 55 52 56 58 58 64 76 78 74 75 70 65 58 56 53
57 57 56 56 57 56 58 60 63 53 46 40 41 41 40 41 43 46 52 58 60 59 59 56 55 56 56 54 49 47 44 42 46 48 56 69 78 79 74 69 66 60 55
61 61 61 61 60 61 59 44 35 29 25 29 29 32 34 38 42 48 55 56 56 53 51 53 56 55 48 45 42 41 36 31 31 36 43 54 67 78 76 69 63 65 60
56 57 56 52 45 37 30 25 22 21 24 25 28 30 33 37 41 46 53 53 53 51 50 52 53 49 44 39 37 33 29 26 23 26 33 42 55 62 71 70 67 68 67
37 33 30 29 25 22 22 22 22 23 22 27 29 30 32 36 40 42 48 50 50 46 49 49 49 46 44 38 32 27 24 21 17 18 26 34 45 52 67 72 70 71 69
32 27 24 21 21 20 22 23 26 23 25 28 30 30 32 36 40 41 46 48 48 41 45 46 46 43 40 37 35 28 21 16 13 14 19 27 37 45 60 72 69 70 70
27 24 23 23 25 23 24 27 28 23 27 28 30 32 31 35 37 39 44 48 47 34 40 39 43 41 35 33 30 27 22 13 6 7 15 24 29 41 55 72 72 68 65
26 26 26 27 28 27 31 30 26 25 29 30 32 32 33 35 37 38 39 45 44 37 32 39 40 39 30 26 27 25 22 13 3 7 14 24 30 42 56 73 69 64 60
28 28 29 31 30 34 31 31 28 29 31 30 31 31 32 33 35 37 37 38 43 42 30 31 27 32 26 24 22 18 19 13 2 10 17 25 33 43 54 73 72 68 64
29 30 32 33 35 32 30 30 29 31 33 34 33 35 36 38 37 38 35 35 38 37 31 26 24 23 22 23 19 13 13 6 2 8 18 25 34 46 59 71 67 68 65
29 34 37 37 36 32 30 29 30 32 36 38 38 39 41 42 42 43 40 34 34 36 30 21 20 18 23 19 18 15 8 6 3 10 19 29 39 53 68 65 64 65 60
29 34 34 30 28 29 29 31 35 36 38 40 41 44 45 46 47 48 45 39 34 30 33 23 19 14 14 11 18 18 16 6 6 11 23 37 50 63 68 61 58 60 53
28 31 32 31 31 29 29 32 32 34 36 39 41 43 44 45 45 44 43 41 34 29 29 27 16 14 9 10 13 15 19 16 13 13 26 45 54 61 58 60 56 49 46
31 31 30 30 31 33 34 31 32 35 37 39 42 42 42 43 44 44 44 42 38 31 25 26 18 11 11 14 10 7 16 13 15 19 25 41 53 56 55 53 52 47 50
32 33 34 34 32 34 36 38 40 40 42 43 42 43 43 42 41 42 40 38 37 35 26 23 21 12 14 20 19 16 12 8 10 27 32 34 43 52 56 58 55 52 53
33 33 33 35 37 39 41 43 44 47 46 46 47 46 45 45 45 43 41 39 35 33 31 24 22 19 16 26 28 26 19 13 13 19 31 40 43 47 47 46 50 47 45
32 33 35 39 43 45 47 48 51 51 51 51 52 52 51 50 49 47 44 41 39 35 33 31 27 25 22 32 33 31 30 21 21 21 22 27 36 41 44 44 45 42 43
34 39 42 46 49 53 57 58 56 57 59 60 60 59 57 55 50 48 46 43 41 39 38 35 34 32 31 30 40 38 38 33 28 30 28 25 32 36 38 43 44 43 45

GFSGL_250_spd_114.txt.gz
Wind_Speed
70 69 69 69 68 68 68 69 70 70 71 70 69 69 70 72 73 73 73 76 76 77 75 73 75 75 74 73 68 61 59 51 64 83 86 92 88 90 88 91 90 89 83
72 73 73 72 72 72 72 74 75 74 72 70 69 69 71 72 74 76 77 73 74 72 71 72 75 73 73 73 70 65 61 62 54 69 85 94 96 95 96 96 100 95 91
75 76 76 76 78 78 79 77 76 74 71 70 70 70 71 72 74 76 73 72 71 71 71 74 75 74 75 71 66 63 63 64 65 63 70 99 100 102 103 102 104 105 101
77 77 77 78 81 86 84 83 83 78 74 73 72 73 73 74 73 70 70 70 69 69 72 74 75 76 71 65 62 62 62 62 64 68 70 69 95 109 110 109 111 112 113
61 59 62 66 71 71 72 70 69 69 69 68 67 69 70 69 67 66 67 68 69 72 73 75 74 69 63 62 66 70 70 69 69 68 69 73 78 81 88 92 94 100 100
54 55 54 58 64 65 62 64 66 66 66 69 71 70 64 62 63 64 65 69 70 72 73 72 65 62 64 68 74 77 79 79 78 78 76 77 78 80 87 87 81 77 73
52 50 51 52 54 55 58 61 62 61 61 59 60 62 60 60 63 64 67 67 69 69 67 60 60 67 72 75 72 69 68 71 71 71 71 77 82 84 86 84 80 76 72
53 53 52 50 49 48 47 47 48 50 53 54 55 57 60 63 64 64 65 67 62 61 57 57 64 72 74 68 63 63 62 63 62 59 64 69 71 80 84 83 77 72 69
51 53 54 54 54 52 50 51 53 55 56 58 60 60 63 63 64 65 56 50 51 53 55 60 64 68 53 54 57 54 53 54 48 49 52 57 60 63 72 81 76 69 67
49 50 52 52 52 52 53 54 55 55 55 57 57 60 62 56 44 37 37 39 44 51 56 61 64 55 53 53 50 47 43 43 41 41 43 48 53 52 58 69 77 69 65
50 53 54 55 55 55 55 54 55 56 59 59 55 46 40 30 27 29 32 35 43 50 55 59 61 53 51 53 54 48 44 39 37 34 35 39 45 47 51 60 75 71 65
50 49 48 47 46 50 54 57 60 60 57 45 35 31 24 22 27 29 32 36 43 47 51 54 55 51 52 57 56 50 43 40 32 29 29 33 37 41 44 54 71 72 66
52 50 48 42 38 35 35 36 37 37 32 31 29 26 19 25 29 30 33 38 43 46 47 50 56 51 51 56 54 48 44 41 34 27 24 26 29 35 40 51 66 73 71
50 48 46 36 30 29 28 28 29 28 28 28 28 22 20 27 29 31 35 39 44 46 45 50 58 48 49 54 54 50 46 41 35 28 21 20 23 28 36 48 62 77 74
45 43 38 31 27 26 26 26 27 27 28 30 30 20 24 31 31 31 35 38 42 44 44 48 52 48 47 51 56 55 47 39 32 25 19 14 16 21 28 41 59 76 75
35 34 32 29 27 28 27 26 27 29 29 29 27 23 30 31 33 32 34 38 41 42 42 41 49 49 45 46 52 52 48 38 30 23 15 9 11 18 27 37 53 75 70
27 28 28 28 28 30 29 31 30 31 31 31 27 29 34 33 35 35 36 37 40 44 45 42 42 47 45 42 46 44 42 35 28 21 14 6 10 19 27 35 54 70 70
22 23 25 27 28 30 33 33 31 30 30 29 32 34 36 37 38 39 41 42 44 46 48 46 39 40 43 36 38 37 37 31 27 20 13 2 8 20 26 41 61 69 68
20 22 25 27 30 33 36 35 31 29 29 32 34 34 37 39 41 44 43 45 45 44 40 40 37 35 37 29 32 31 34 28 26 19 10 2 8 19 29 50 62 60 61
21 24 27 29 33 36 37 32 30 31 34 35 35 37 39 41 42 42 40 41 42 42 41 35 33 30 32 24 28 26 29 26 22 14 6 6 14 22 37 58 56 57 61
24 25 28 29 32 37 37 34 32 33 34 33 34 35 34 34 33 36 38 38 39 38 35 34 28 26 25 20 19 22 25 23 16 6 4 15 20 31 54 60 57 59 63
26 28 30 31 33 35 35 33 34 34 34 34 34 35 36 37 37 38 37 38 37 36 34 33 28 23 20 18 15 13 15 19 11 5 12 22 32 47 56 58 56 53 58
27 29 31 33 34 36 35 35 37 36 37 39 40 41 42 42 43 41 41 39 38 37 35 33 30 23 19 15 17 12 10 11 6 10 21 29 46 55 55 53 55 54 54
29 31 32 33 36 37 39 40 42 43 43 44 45 46 45 47 48 47 45 44 44 43 42 35 32 27 23 16 21 19 9 8 3 10 24 34 49 50 50 51 51 50 50
28 31 34 36 40 42 43 43 45 47 49 50 50 52 54 55 56 54 53 52 51 49 47 42 35 30 30 23 26 28 19 13 10 12 21 35 44 48 54 55 54 52 52
25 28 31 33 36 39 42 46 50 53 54 57 59 61 61 61 60 60 59 57 54 50 45 41 38 34 31 34 27 36 34 24 20 17 23 34 43 49 53 55 55 56 53

GFSGL_250_spd_117.txt.gz
Wind_Speed
70 68 68 68 67 68 68 69 68 68 68 69 70 70 71 70 70 70 72 73 75 77 77 77 78 77 79 79 80 80 77 75 69 64 62 59 60 57 52 74 76 73 68
71 69 69 69 70 71 71 71 72 72 72 73 74 75 74 74 73 73 74 73 73 74 75 74 77 77 78 77 76 78 79 78 71 63 58 53 54 62 65 60 78 83 82
68 69 70 71 73 74 75 76 77 77 77 78 79 79 77 75 73 74 75 75 75 74 73 75 76 75 73 74 77 79 78 78 72 58 56 58 57 59 65 71 73 80 91
65 67 69 72 75 75 76 77 79 80 81 82 81 79 77 81 81 76 76 73 72 70 72 71 72 71 72 75 78 79 79 72 65 64 64 65 66 68 67 69 75 79 72
55 65 70 75 80 81 80 81 81 83 83 81 82 77 71 69 67 68 67 66 66 70 71 67 67 69 73 76 77 76 69 69 74 77 74 69 71 70 73 74 73 77 79
44 49 57 60 64 67 68 69 68 66 64 65 62 63 62 61 61 63 67 70 69 65 64 65 68 73 74 76 70 61 66 74 79 81 78 74 69 68 72 73 79 79 77
47 50 56 60 62 64 60 57 57 57 56 54 57 61 65 65 64 61 58 58 60 59 62 67 69 72 75 64 59 65 71 75 70 67 68 68 70 71 68 69 75 83 83
47 48 50 52 53 57 59 58 55 53 50 50 50 48 48 48 50 51 52 56 59 62 65 67 68 65 55 55 61 67 69 65 61 59 54 59 63 66 67 63 66 75 85
53 52 51 53 51 50 55 58 58 58 56 54 51 50 50 51 53 55 57 59 60 62 65 55 48 48 50 56 60 68 61 55 57 54 50 52 53 59 59 56 53 62 74
57 56 55 52 52 51 52 54 55 56 56 57 56 56 57 56 54 55 57 57 60 47 39 38 42 48 52 55 61 63 50 53 53 54 52 48 49 53 48 49 48 52 63
57 57 56 54 52 50 49 51 55 56 57 57 55 55 56 55 53 54 55 47 35 32 32 39 44 50 54 57 59 51 49 52 57 52 47 46 42 42 35 37 39 39 43
55 55 55 54 53 51 49 47 47 50 57 60 61 61 60 57 55 49 34 30 30 32 34 40 43 49 55 56 55 53 53 56 58 49 43 38 33 31 26 30 30 33 42
53 53 55 55 53 50 47 46 44 45 44 43 44 44 45 43 33 31 26 27 31 33 36 40 42 45 52 52 55 58 56 58 59 51 42 34 28 24 19 23 26 33 44
52 51 48 47 45 44 42 41 40 38 36 32 28 28 29 27 28 25 24 28 32 35 38 41 42 43 48 53 55 58 56 56 55 48 42 32 25 19 14 18 23 34 44
46 44 42 40 37 36 37 36 35 34 30 28 26 28 26 24 28 24 26 32 35 37 40 41 42 45 51 53 53 57 54 55 55 45 40 31 23 16 11 13 22 33 45
38 35 32 32 31 31 32 32 31 30 27 27 28 27 23 24 27 25 32 35 36 38 41 45 46 48 46 47 50 54 52 55 53 43 34 25 18 14 6 11 22 33 45
27 26 23 23 26 28 30 29 30 29 27 28 27 23 24 27 27 34 35 36 38 41 42 45 47 46 44 46 44 49 50 50 49 39 31 21 15 10 1 13 24 35 51
20 19 17 17 22 25 26 28 29 28 29 28 26 25 28 31 33 33 35 38 40 42 41 41 42 43 45 40 41 46 47 49 48 40 30 20 14 8 5 13 27 41 60
17 16 16 17 19 22 26 28 30 32 33 30 27 30 32 32 34 36 36 37 39 37 35 37 41 38 38 35 34 39 41 42 44 37 30 19 11 6 6 14 31 49 59
16 16 16 19 22 25 27 29 31 33 35 32 30 31 33 34 36 38 39 38 32 30 33 34 36 35 34 33 29 34 36 37 39 32 23 14 8 6 10 22 39 57 60
15 15 18 20 22 23 23 25 29 32 35 33 33 35 36 39 38 38 34 33 33 34 34 34 34 32 33 31 26 28 30 30 35 28 22 9 5 6 18 33 50 61 59
17 18 20 23 24 27 28 29 30 33 36 36 37 37 39 38 38 38 37 37 36 36 35 35 33 32 31 30 25 24 25 25 27 23 16 7 5 13 27 38 55 57 58
18 20 22 26 28 30 31 33 34 36 39 40 41 42 42 43 43 41 41 41 39 38 38 39 38 35 33 28 27 22 20 20 16 13 6 8 17 25 38 48 55 54 57
22 24 26 27 29 31 32 34 36 39 41 43 45 46 47 47 46 46 46 47 46 45 43 44 43 42 38 34 29 23 20 18 9 6 5 16 28 35 42 51 55 55 53
23 24 26 28 31 34 37 39 40 42 44 45 47 49 51 51 51 51 52 52 52 51 52 50 47 47 45 37 30 26 24 19 15 5 8 21 33 41 45 48 54 55 59
19 21 23 26 28 31 35 37 39 42 44 46 48 50 53 55 57 58 59 58 57 56 55 55 51 45 42 36 30 29 28 27 23 15 14 23 33 44 47 49 49 50 49

GFSGL_250_spd_123.txt.gz
Wind_Speed
44 50 56 58 62 65 59 56 60 58 58 56 59 63 66 67 69 73 74 75 75 74 73 76 75 74 75 76 76 77 76 74 72 74 78 82 79 75 77 75 71 70 70
55 60 66 64 69 66 61 61 60 63 66 66 66 67 70 73 74 75 75 75 77 79 80 81 80 80 82 83 83 83 82 84 80 79 74 73 71 74 73 71 69 71 70
71 65 72 74 77 79 76 73 68 70 72 74 75 76 79 79 80 79 80 81 83 84 84 86 88 89 89 89 88 85 80 76 71 64 63 69 70 70 68 70 72 67 58
66 79 80 79 79 80 72 75 79 79 77 79 84 84 85 85 87 86 87 88 87 89 90 91 92 90 85 77 66 60 58 57 57 62 65 62 63 69 70 67 60 62 63
53 57 68 81 81 80 78 76 75 75 80 84 87 90 89 89 91 94 93 90 85 83 77 70 65 61 58 57 56 56 55 57 56 55 58 62 66 66 60 57 60 65 65
55 56 58 63 65 64 65 67 70 70 72 72 73 74 72 72 71 69 70 67 64 63 56 53 52 49 47 47 47 48 49 51 56 60 63 64 59 56 56 61 61 62 65
55 55 55 55 56 59 60 60 62 61 59 63 65 64 64 62 64 66 63 60 58 53 50 50 47 44 42 44 47 51 56 56 57 59 50 50 52 57 59 62 64 65 62
52 53 52 51 52 57 59 56 56 59 62 64 64 63 63 62 60 59 56 55 54 53 53 52 51 47 45 50 54 56 56 57 49 46 48 50 53 57 58 61 68 61 62
52 49 49 49 50 57 56 56 61 63 65 63 63 63 63 61 59 58 56 53 53 53 51 51 52 52 52 52 52 53 51 45 47 49 53 54 57 60 63 63 68 64 65
53 52 53 52 55 56 57 64 67 67 65 63 62 64 63 60 59 59 57 55 53 52 52 48 47 47 47 47 49 43 43 46 48 55 58 57 57 62 63 67 67 65 60
57 57 59 63 66 65 66 68 68 63 59 55 55 57 59 58 56 56 56 56 54 52 47 44 45 43 44 44 40 40 44 46 50 55 58 61 63 64 64 67 65 56 50
61 63 66 69 69 66 67 67 67 63 59 59 55 55 55 53 54 53 53 51 50 45 38 34 36 41 39 34 37 42 44 47 51 56 59 61 62 61 66 60 51 43 40
61 60 60 62 63 66 68 69 66 65 62 58 55 55 53 50 49 47 46 44 38 31 25 24 25 25 26 33 38 39 43 50 55 58 58 57 52 59 54 46 40 34 30
57 60 63 64 68 70 68 66 64 62 58 55 53 52 50 45 43 40 38 32 25 20 16 16 20 24 30 36 37 41 45 49 49 51 51 46 52 52 44 40 34 27 24
58 58 58 62 59 55 56 56 51 46 44 45 45 45 43 38 35 33 27 21 17 15 18 21 23 27 32 33 35 39 37 41 44 45 41 46 47 43 38 34 28 20 18
51 52 51 47 47 47 47 43 38 36 35 35 37 38 33 31 28 24 20 19 20 21 23 26 28 26 29 30 33 30 33 39 43 43 41 46 45 37 32 28 21 14 12
50 44 42 41 39 35 34 32 30 27 25 24 27 31 27 24 21 18 19 21 23 21 21 25 24 25 27 30 27 29 33 38 43 41 42 45 41 32 28 22 12 5 12
42 39 34 30 27 27 27 26 22 17 19 20 22 23 21 20 20 19 22 25 25 25 24 24 24 25 26 24 26 28 30 36 40 41 42 42 38 28 21 12 3 9 18
34 29 25 24 24 24 21 19 17 16 17 19 18 17 16 18 20 23 26 28 28 29 29 27 25 24 24 24 26 27 30 35 39 43 42 39 36 24 11 5 6 15 27
25 23 22 23 23 22 21 19 17 16 17 15 15 16 18 22 23 25 27 29 30 31 31 31 29 26 24 26 27 26 29 33 36 40 42 37 32 17 8 11 17 30 44
21 21 21 20 20 21 20 18 16 16 15 16 16 18 20 23 27 29 32 33 34 35 36 35 32 29 26 28 28 27 28 30 34 37 41 35 25 9 13 28 36 33 41
19 20 19 19 19 20 20 20 20 20 20 21 21 22 23 25 27 30 33 35 38 40 40 37 36 32 31 31 30 28 28 28 31 34 38 32 20 4 27 41 39 43 46
19 20 19 20 21 21 22 22 23 25 26 26 27 28 30 31 31 32 34 36 38 40 41 40 38 35 34 33 32 28 26 27 29 31 33 26 13 12 37 43 42 46 50
19 20 20 21 21 22 23 24 26 28 29 31 32 33 35 36 36 37 38 38 39 39 39 38 36 35 33 33 31 29 26 25 27 29 25 18 4 23 44 42 47 51 54
18 19 21 22 24 25 26 26 26 28 29 30 31 33 35 36 38 39 39 39 39 39 38 36 35 34 32 30 30 30 27 25 27 24 22 10 7 37 49 47 49 53 54
14 14 15 17 18 20 23 25 28 30 33 35 37 39 41 43 45 46 47 47 46 45 44 43 42 40 38 36 34 33 29 25 24 21 21 11 16 47 52 52 55 55 54